owner,sensor,date,latitude,longitude,vertical_datum,sea_water_practical_salinity,qcFlag 
SCCF RECON,ioos:station:SCCF:12:1,2009-04-01T00:00:00Z,26.4966,-82.1479,0.98,35.85,1111122 
SCCF RECON,ioos:station:SCCF:12:1,2009-04-01T01:00:00Z,26.4966,-82.1479,0.97,35.82,1111122 
SCCF RECON,ioos:station:SCCF:12:1,2009-04-01T02:00:00Z,26.4966,-82.1479,0.96,35.82,1111122 
SCCF RECON,ioos:station:SCCF:12:1,2009-04-01T03:00:00Z,26.4966,-82.1479,0.95,35.83,1111122 
SCCF RECON,ioos:station:SCCF:12:1,2009-04-01T04:00:00Z,26.4966,-82.1479,0.95,35.86,1111122 
SCCF RECON,ioos:station:SCCF:12:1,2009-04-01T05:00:00Z,26.4966,-82.1479,0.95,35.88,1111122 
SCCF RECON,ioos:station:SCCF:12:1,2009-04-01T06:00:00Z,26.4966,-82.1479,0.948,35.88,1111122 
SCCF RECON,ioos:station:SCCF:12:1,2009-04-01T07:00:00Z,26.4966,-82.1479,0.95,35.88,1111122 
SCCF RECON,ioos:station:SCCF:12:1,2009-04-01T08:00:00Z,26.4966,-82.1479,0.96,35.87,1111122 
SCCF RECON,ioos:station:SCCF:12:1,2009-04-01T09:00:00Z,26.4966,-82.1479,0.97,35.86,1111122 
SCCF RECON,ioos:station:SCCF:12:1,2009-04-01T10:00:00Z,26.4966,-82.1479,0.99,35.86,1111122 
SCCF RECON,ioos:station:SCCF:12:1,2009-04-01T11:00:00Z,26.4966,-82.1479,0.98,35.82,1111122 
SCCF RECON,ioos:station:SCCF:12:1,2009-04-01T12:00:00Z,26.4966,-82.1479,0.99,35.75,1111122 
SCCF RECON,ioos:station:SCCF:12:1,2009-04-01T13:00:00Z,26.4966,-82.1479,0.995,35.74,1111122 
SCCF RECON,ioos:station:SCCF:12:1,2009-04-01T14:00:00Z,26.4966,-82.1479,1.0,35.8,1111122 
SCCF RECON,ioos:station:SCCF:12:1,2009-04-01T15:00:00Z,26.4966,-82.1479,1.01,35.82,1111122 
SCCF RECON,ioos:station:SCCF:12:1,2009-04-01T16:00:00Z,26.4966,-82.1479,1.02,35.86,1111122 
SCCF RECON,ioos:station:SCCF:12:1,2009-04-01T17:00:00Z,26.4966,-82.1479,1.03,35.91,1111122 
SCCF RECON,ioos:station:SCCF:12:1,2009-04-01T18:00:00Z,26.4966,-82.1479,1.05,35.91,1111122 
SCCF RECON,ioos:station:SCCF:12:1,2009-04-01T19:00:00Z,26.4966,-82.1479,1.06,35.94,1111122 
SCCF RECON,ioos:station:SCCF:12:1,2009-04-01T20:00:00Z,26.4966,-82.1479,1.076,35.95,1111122 
SCCF RECON,ioos:station:SCCF:12:1,2009-04-01T21:00:00Z,26.4966,-82.1479,1.08,35.91,1111122 
SCCF RECON,ioos:station:SCCF:12:1,2009-04-01T22:00:00Z,26.4966,-82.1479,1.1,35.95,1111122 
SCCF RECON,ioos:station:SCCF:12:1,2009-04-01T23:00:00Z,26.4966,-82.1479,1.1,35.95,1111122 
SCCF RECON,ioos:station:SCCF:12:1,2009-04-02T00:00:00Z,26.4966,-82.1479,1.09,35.94,1111122 
SCCF RECON,ioos:station:SCCF:12:1,2009-04-02T01:00:00Z,26.4966,-82.1479,1.08,35.95,1111122 
SCCF RECON,ioos:station:SCCF:12:1,2009-04-02T02:00:00Z,26.4966,-82.1479,1.07,35.95,1111122 
SCCF RECON,ioos:station:SCCF:12:1,2009-04-02T03:00:00Z,26.4966,-82.1479,1.05,35.96,1111122 
SCCF RECON,ioos:station:SCCF:12:1,2009-04-02T04:00:00Z,26.4966,-82.1479,1.05,35.96,1111122 
SCCF RECON,ioos:station:SCCF:12:1,2009-04-02T05:00:00Z,26.4966,-82.1479,1.046,35.96,1111122 
SCCF RECON,ioos:station:SCCF:12:1,2009-04-02T06:00:00Z,26.4966,-82.1479,1.03,35.95,1111122 
SCCF RECON,ioos:station:SCCF:12:1,2009-04-02T07:00:00Z,26.4966,-82.1479,1.02,35.96,1111122 
SCCF RECON,ioos:station:SCCF:12:1,2009-04-02T08:00:00Z,26.4966,-82.1479,1.02,35.95,1111122 
SCCF RECON,ioos:station:SCCF:12:1,2009-04-02T09:00:00Z,26.4966,-82.1479,1.01,35.94,1111122 
SCCF RECON,ioos:station:SCCF:12:1,2009-04-02T10:00:00Z,26.4966,-82.1479,1.02,35.96,1111122 
SCCF RECON,ioos:station:SCCF:12:1,2009-04-02T11:00:00Z,26.4966,-82.1479,1.04,35.96,1111122 
SCCF RECON,ioos:station:SCCF:12:1,2009-04-02T12:00:00Z,26.4966,-82.1479,1.02,35.96,1111122 
SCCF RECON,ioos:station:SCCF:12:1,2009-04-02T13:00:00Z,26.4966,-82.1479,1.03,35.92,1111122 
SCCF RECON,ioos:station:SCCF:12:1,2009-04-02T14:00:00Z,26.4966,-82.1479,1.03,35.92,1111122 
SCCF RECON,ioos:station:SCCF:12:1,2009-04-02T15:00:00Z,26.4966,-82.1479,1.04,35.99,1111122 
SCCF RECON,ioos:station:SCCF:12:1,2009-04-02T16:00:00Z,26.4966,-82.1479,1.052,36.02,1111122 
SCCF RECON,ioos:station:SCCF:12:1,2009-04-02T17:00:00Z,26.4966,-82.1479,1.06,36.03,1111122 
SCCF RECON,ioos:station:SCCF:12:1,2009-04-02T18:00:00Z,26.4966,-82.1479,1.07,36.04,1111122 
SCCF RECON,ioos:station:SCCF:12:1,2009-04-02T19:00:00Z,26.4966,-82.1479,1.09,36.05,1111122 
SCCF RECON,ioos:station:SCCF:12:1,2009-04-02T20:00:00Z,26.4966,-82.1479,1.1,36.05,1111122 
SCCF RECON,ioos:station:SCCF:12:1,2009-04-02T21:00:00Z,26.4966,-82.1479,1.103,36.04,1111122 
SCCF RECON,ioos:station:SCCF:12:1,2009-04-02T22:00:00Z,26.4966,-82.1479,1.11,36.05,1111122 
SCCF RECON,ioos:station:SCCF:12:1,2009-04-02T23:00:00Z,26.4966,-82.1479,1.12,36.05,1111122 
SCCF RECON,ioos:station:SCCF:12:1,2009-04-03T00:00:00Z,26.4966,-82.1479,1.11,36.04,1111122 
SCCF RECON,ioos:station:SCCF:12:1,2009-04-03T01:00:00Z,26.4966,-82.1479,1.11,36.04,1111122 
SCCF RECON,ioos:station:SCCF:12:1,2009-04-03T02:00:00Z,26.4966,-82.1479,1.091,36.05,1111122 
SCCF RECON,ioos:station:SCCF:12:1,2009-04-03T03:00:00Z,26.4966,-82.1479,1.07,36.05,1111122 
SCCF RECON,ioos:station:SCCF:12:1,2009-04-03T04:00:00Z,26.4966,-82.1479,1.06,36.04,1111122 
SCCF RECON,ioos:station:SCCF:12:1,2009-04-03T05:00:00Z,26.4966,-82.1479,1.05,36.05,1111122 
SCCF RECON,ioos:station:SCCF:12:1,2009-04-03T06:00:00Z,26.4966,-82.1479,1.04,36.05,1111122 
SCCF RECON,ioos:station:SCCF:12:1,2009-04-03T07:00:00Z,26.4966,-82.1479,1.03,36.05,1111122 
SCCF RECON,ioos:station:SCCF:12:1,2009-04-03T08:00:00Z,26.4966,-82.1479,1.02,36.06,1111122 
SCCF RECON,ioos:station:SCCF:12:1,2009-04-03T09:00:00Z,26.4966,-82.1479,1.01,36.06,1111122 
SCCF RECON,ioos:station:SCCF:12:1,2009-04-03T10:00:00Z,26.4966,-82.1479,1.0,36.06,1111122 
SCCF RECON,ioos:station:SCCF:12:1,2009-04-03T11:00:00Z,26.4966,-82.1479,1.01,36.07,1111122 
SCCF RECON,ioos:station:SCCF:12:1,2009-04-03T12:00:00Z,26.4966,-82.1479,1.02,36.07,1111122 
SCCF RECON,ioos:station:SCCF:12:1,2009-04-03T13:00:00Z,26.4966,-82.1479,1.02,36.08,1111122 
SCCF RECON,ioos:station:SCCF:12:1,2009-04-03T14:00:00Z,26.4966,-82.1479,1.03,36.08,1111122 
SCCF RECON,ioos:station:SCCF:12:1,2009-04-03T15:00:00Z,26.4966,-82.1479,1.04,36.08,1111122 
SCCF RECON,ioos:station:SCCF:12:1,2009-04-03T16:00:00Z,26.4966,-82.1479,1.04,36.07,1111122 
SCCF RECON,ioos:station:SCCF:12:1,2009-04-03T17:00:00Z,26.4966,-82.1479,1.03,36.08,1111122 
SCCF RECON,ioos:station:SCCF:12:1,2009-04-03T18:00:00Z,26.4966,-82.1479,1.04,36.08,1111122 
SCCF RECON,ioos:station:SCCF:12:1,2009-04-03T19:00:00Z,26.4966,-82.1479,1.03,36.08,1111122 
SCCF RECON,ioos:station:SCCF:12:1,2009-04-03T20:00:00Z,26.4966,-82.1479,1.03,36.08,1111122 
SCCF RECON,ioos:station:SCCF:12:1,2009-04-03T21:00:00Z,26.4966,-82.1479,1.03,36.08,1111122 
SCCF RECON,ioos:station:SCCF:12:1,2009-04-03T22:00:00Z,26.4966,-82.1479,1.04,36.08,1111122 
SCCF RECON,ioos:station:SCCF:12:1,2009-04-03T23:00:00Z,26.4966,-82.1479,1.04,36.08,1111122 
SCCF RECON,ioos:station:SCCF:12:1,2009-04-04T00:00:00Z,26.4966,-82.1479,1.03,36.08,1111122 
SCCF RECON,ioos:station:SCCF:12:1,2009-04-04T01:00:00Z,26.4966,-82.1479,1.02,36.07,1111122 
SCCF RECON,ioos:station:SCCF:12:1,2009-04-04T02:00:00Z,26.4966,-82.1479,1.02,36.07,1111122 
SCCF RECON,ioos:station:SCCF:12:1,2009-04-04T03:00:00Z,26.4966,-82.1479,1.01,36.07,1111122 
SCCF RECON,ioos:station:SCCF:12:1,2009-04-04T04:00:00Z,26.4966,-82.1479,1.01,36.08,1111122 
SCCF RECON,ioos:station:SCCF:12:1,2009-04-04T05:00:00Z,26.4966,-82.1479,1.0,36.08,1111122 
SCCF RECON,ioos:station:SCCF:12:1,2009-04-04T06:00:00Z,26.4966,-82.1479,0.991,36.08,1111122 
SCCF RECON,ioos:station:SCCF:12:1,2009-04-04T07:00:00Z,26.4966,-82.1479,0.98,36.08,1111122 
SCCF RECON,ioos:station:SCCF:12:1,2009-04-04T08:00:00Z,26.4966,-82.1479,0.97,36.08,1111122 
SCCF RECON,ioos:station:SCCF:12:1,2009-04-04T09:00:00Z,26.4966,-82.1479,0.96,36.08,1111122 
SCCF RECON,ioos:station:SCCF:12:1,2009-04-04T10:00:00Z,26.4966,-82.1479,0.95,36.09,1111122 
SCCF RECON,ioos:station:SCCF:12:1,2009-04-04T11:00:00Z,26.4966,-82.1479,0.95,36.09,1111122 
SCCF RECON,ioos:station:SCCF:12:1,2009-04-04T12:00:00Z,26.4966,-82.1479,0.94,36.09,1111122 
SCCF RECON,ioos:station:SCCF:12:1,2009-04-04T13:00:00Z,26.4966,-82.1479,0.94,36.08,1111122 
SCCF RECON,ioos:station:SCCF:12:1,2009-04-04T14:00:00Z,26.4966,-82.1479,0.94,36.08,1111122 
SCCF RECON,ioos:station:SCCF:12:1,2009-04-04T15:00:00Z,26.4966,-82.1479,0.947,36.09,1111122 
SCCF RECON,ioos:station:SCCF:12:1,2009-04-04T16:00:00Z,26.4966,-82.1479,0.95,36.09,1111122 
SCCF RECON,ioos:station:SCCF:12:1,2009-04-04T17:00:00Z,26.4966,-82.1479,0.96,36.1,1111122 
SCCF RECON,ioos:station:SCCF:12:1,2009-04-04T18:00:00Z,26.4966,-82.1479,0.97,36.1,1111122 
SCCF RECON,ioos:station:SCCF:12:1,2009-04-04T19:00:00Z,26.4966,-82.1479,0.97,36.09,1111122 
SCCF RECON,ioos:station:SCCF:12:1,2009-04-04T20:00:00Z,26.4966,-82.1479,0.97,36.09,1111122 
SCCF RECON,ioos:station:SCCF:12:1,2009-04-04T21:00:00Z,26.4966,-82.1479,0.97,36.1,1111122 
SCCF RECON,ioos:station:SCCF:12:1,2009-04-04T22:00:00Z,26.4966,-82.1479,0.97,36.1,1111122 
SCCF RECON,ioos:station:SCCF:12:1,2009-04-04T23:00:00Z,26.4966,-82.1479,0.984,36.09,1111122 
SCCF RECON,ioos:station:SCCF:12:1,2009-04-05T00:00:00Z,26.4966,-82.1479,0.99,36.1,1111122 
SCCF RECON,ioos:station:SCCF:12:1,2009-04-05T01:00:00Z,26.4966,-82.1479,0.991,36.1,1111122 
SCCF RECON,ioos:station:SCCF:12:1,2009-04-05T02:00:00Z,26.4966,-82.1479,1.0,36.11,1111122 
SCCF RECON,ioos:station:SCCF:12:1,2009-04-05T03:00:00Z,26.4966,-82.1479,0.999,36.1,1111122 
SCCF RECON,ioos:station:SCCF:12:1,2009-04-05T04:00:00Z,26.4966,-82.1479,0.97,36.1,1111122 
SCCF RECON,ioos:station:SCCF:12:1,2009-04-05T05:00:00Z,26.4966,-82.1479,0.96,36.1,1111122 
SCCF RECON,ioos:station:SCCF:12:1,2009-04-05T06:00:00Z,26.4966,-82.1479,0.95,36.1,1111122 
SCCF RECON,ioos:station:SCCF:12:1,2009-04-05T07:00:00Z,26.4966,-82.1479,0.94,36.1,1111122 
SCCF RECON,ioos:station:SCCF:12:1,2009-04-05T08:00:00Z,26.4966,-82.1479,0.93,36.1,1111122 
SCCF RECON,ioos:station:SCCF:12:1,2009-04-05T09:00:00Z,26.4966,-82.1479,0.921,36.1,1111122 
SCCF RECON,ioos:station:SCCF:12:1,2009-04-05T10:00:00Z,26.4966,-82.1479,0.92,36.1,1111122 
SCCF RECON,ioos:station:SCCF:12:1,2009-04-05T11:00:00Z,26.4966,-82.1479,0.92,36.1,1111122 
SCCF RECON,ioos:station:SCCF:12:1,2009-04-05T12:00:00Z,26.4966,-82.1479,0.92,36.1,1111122 
SCCF RECON,ioos:station:SCCF:12:1,2009-04-05T13:00:00Z,26.4966,-82.1479,0.91,36.1,1111122 
SCCF RECON,ioos:station:SCCF:12:1,2009-04-05T14:00:00Z,26.4966,-82.1479,0.91,36.11,1111122 
SCCF RECON,ioos:station:SCCF:12:1,2009-04-05T15:00:00Z,26.4966,-82.1479,0.92,36.11,1111122 
SCCF RECON,ioos:station:SCCF:12:1,2009-04-05T16:00:00Z,26.4966,-82.1479,0.92,36.11,1111122 
SCCF RECON,ioos:station:SCCF:12:1,2009-04-05T17:00:00Z,26.4966,-82.1479,0.93,36.11,1111122 
SCCF RECON,ioos:station:SCCF:12:1,2009-04-05T18:00:00Z,26.4966,-82.1479,0.94,36.11,1111122 
SCCF RECON,ioos:station:SCCF:12:1,2009-04-05T19:00:00Z,26.4966,-82.1479,0.94,36.11,1111122 
SCCF RECON,ioos:station:SCCF:12:1,2009-04-05T20:00:00Z,26.4966,-82.1479,0.95,36.11,1111122 
SCCF RECON,ioos:station:SCCF:12:1,2009-04-05T21:00:00Z,26.4966,-82.1479,0.95,36.12,1111122 
SCCF RECON,ioos:station:SCCF:12:1,2009-04-05T22:00:00Z,26.4966,-82.1479,0.96,36.11,1111122 
SCCF RECON,ioos:station:SCCF:12:1,2009-04-05T23:00:00Z,26.4966,-82.1479,0.959,36.11,1111122 
SCCF RECON,ioos:station:SCCF:12:1,2009-04-06T00:00:00Z,26.4966,-82.1479,0.95,36.11,1111122 
SCCF RECON,ioos:station:SCCF:12:1,2009-04-06T01:00:00Z,26.4966,-82.1479,0.95,36.11,1111122 
SCCF RECON,ioos:station:SCCF:12:1,2009-04-06T02:00:00Z,26.4966,-82.1479,0.95,36.11,1111122 
SCCF RECON,ioos:station:SCCF:12:1,2009-04-06T03:00:00Z,26.4966,-82.1479,0.95,36.11,1111122 
SCCF RECON,ioos:station:SCCF:12:1,2009-04-06T04:00:00Z,26.4966,-82.1479,0.95,36.12,1111122 
SCCF RECON,ioos:station:SCCF:12:1,2009-04-06T05:00:00Z,26.4966,-82.1479,0.95,36.13,1111122 
SCCF RECON,ioos:station:SCCF:12:1,2009-04-06T06:00:00Z,26.4966,-82.1479,0.935,36.11,1111122 
SCCF RECON,ioos:station:SCCF:12:1,2009-04-06T07:00:00Z,26.4966,-82.1479,0.93,36.11,1111122 
SCCF RECON,ioos:station:SCCF:12:1,2009-04-06T08:00:00Z,26.4966,-82.1479,0.92,36.11,1111122 
SCCF RECON,ioos:station:SCCF:12:1,2009-04-06T09:00:00Z,26.4966,-82.1479,0.91,36.11,1111122 
SCCF RECON,ioos:station:SCCF:12:1,2009-04-06T10:00:00Z,26.4966,-82.1479,0.9,36.11,1111122 
SCCF RECON,ioos:station:SCCF:12:1,2009-04-06T11:00:00Z,26.4966,-82.1479,0.9,36.13,1111122 
SCCF RECON,ioos:station:SCCF:12:1,2009-04-06T12:00:00Z,26.4966,-82.1479,0.89,36.13,1111122 
SCCF RECON,ioos:station:SCCF:12:1,2009-04-06T13:00:00Z,26.4966,-82.1479,0.89,36.13,1111122 
SCCF RECON,ioos:station:SCCF:12:1,2009-04-06T14:00:00Z,26.4966,-82.1479,0.89,36.12,1111122 
SCCF RECON,ioos:station:SCCF:12:1,2009-04-06T15:00:00Z,26.4966,-82.1479,0.899,36.12,1111122 
SCCF RECON,ioos:station:SCCF:12:1,2009-04-06T16:00:00Z,26.4966,-82.1479,0.91,36.13,1111122 
SCCF RECON,ioos:station:SCCF:12:1,2009-04-06T17:00:00Z,26.4966,-82.1479,0.917,36.11,1111122 
SCCF RECON,ioos:station:SCCF:12:1,2009-04-06T18:00:00Z,26.4966,-82.1479,0.91,36.07,1111122 
SCCF RECON,ioos:station:SCCF:12:1,2009-04-06T19:00:00Z,26.4966,-82.1479,0.914,36.12,1111122 
SCCF RECON,ioos:station:SCCF:12:1,2009-04-06T20:00:00Z,26.4966,-82.1479,0.911,36.11,1111122 
SCCF RECON,ioos:station:SCCF:12:1,2009-04-06T21:00:00Z,26.4966,-82.1479,0.919,36.1,1111122 
SCCF RECON,ioos:station:SCCF:12:1,2009-04-06T22:00:00Z,26.4966,-82.1479,0.91,36.12,1111122 
SCCF RECON,ioos:station:SCCF:12:1,2009-04-06T23:00:00Z,26.4966,-82.1479,0.9,36.14,1111122 
SCCF RECON,ioos:station:SCCF:12:1,2009-04-07T00:00:00Z,26.4966,-82.1479,0.89,36.15,1111122 
SCCF RECON,ioos:station:SCCF:12:1,2009-04-07T01:00:00Z,26.4966,-82.1479,0.88,36.16,1111122 
SCCF RECON,ioos:station:SCCF:12:1,2009-04-07T02:00:00Z,26.4966,-82.1479,0.86,36.18,1111122 
SCCF RECON,ioos:station:SCCF:12:1,2009-04-07T03:00:00Z,26.4966,-82.1479,0.85,36.2,1111122 
SCCF RECON,ioos:station:SCCF:12:1,2009-04-07T04:00:00Z,26.4966,-82.1479,0.85,36.21,1111122 
SCCF RECON,ioos:station:SCCF:12:1,2009-04-07T05:00:00Z,26.4966,-82.1479,0.84,36.21,1111122 
SCCF RECON,ioos:station:SCCF:12:1,2009-04-07T06:00:00Z,26.4966,-82.1479,0.82,36.22,1111122 
SCCF RECON,ioos:station:SCCF:12:1,2009-04-07T07:00:00Z,26.4966,-82.1479,0.8,36.23,1111122 
SCCF RECON,ioos:station:SCCF:12:1,2009-04-07T08:00:00Z,26.4966,-82.1479,0.78,36.25,1111122 
SCCF RECON,ioos:station:SCCF:12:1,2009-04-07T09:00:00Z,26.4966,-82.1479,0.75,36.25,1111122 
SCCF RECON,ioos:station:SCCF:12:1,2009-04-07T10:00:00Z,26.4966,-82.1479,0.72,36.25,1111122 
SCCF RECON,ioos:station:SCCF:12:1,2009-04-07T11:00:00Z,26.4966,-82.1479,0.7,36.26,1111122 
SCCF RECON,ioos:station:SCCF:12:1,2009-04-07T12:00:00Z,26.4966,-82.1479,0.67,36.25,1111122 
SCCF RECON,ioos:station:SCCF:12:1,2009-04-07T13:00:00Z,26.4966,-82.1479,0.64,36.27,1111122 
SCCF RECON,ioos:station:SCCF:12:1,2009-04-07T14:00:00Z,26.4966,-82.1479,0.62,36.27,1111122 
SCCF RECON,ioos:station:SCCF:12:1,2009-04-07T15:00:00Z,26.4966,-82.1479,0.62,36.27,1111122 
SCCF RECON,ioos:station:SCCF:12:1,2009-04-07T16:00:00Z,26.4966,-82.1479,0.61,36.28,1111122 
SCCF RECON,ioos:station:SCCF:12:1,2009-04-07T17:00:00Z,26.4966,-82.1479,0.61,36.29,1111122 
SCCF RECON,ioos:station:SCCF:12:1,2009-04-07T18:00:00Z,26.4966,-82.1479,0.61,36.3,1111122 
SCCF RECON,ioos:station:SCCF:12:1,2009-04-07T19:00:00Z,26.4966,-82.1479,0.61,36.31,1111122 
SCCF RECON,ioos:station:SCCF:12:1,2009-04-07T20:00:00Z,26.4966,-82.1479,0.61,36.32,1111122 
SCCF RECON,ioos:station:SCCF:12:1,2009-04-07T21:00:00Z,26.4966,-82.1479,0.601,36.31,1111122 
SCCF RECON,ioos:station:SCCF:12:1,2009-04-07T22:00:00Z,26.4966,-82.1479,0.591,36.33,1111122 
SCCF RECON,ioos:station:SCCF:12:1,2009-04-07T23:00:00Z,26.4966,-82.1479,0.585,36.33,1111122 
SCCF RECON,ioos:station:SCCF:12:1,2009-04-08T00:00:00Z,26.4966,-82.1479,0.58,36.34,1111122 
SCCF RECON,ioos:station:SCCF:12:1,2009-04-08T01:00:00Z,26.4966,-82.1479,0.56,36.34,1111122 
SCCF RECON,ioos:station:SCCF:12:1,2009-04-08T02:00:00Z,26.4966,-82.1479,0.541,36.31,1111122 
SCCF RECON,ioos:station:SCCF:12:1,2009-04-08T03:00:00Z,26.4966,-82.1479,0.53,36.31,1111122 
SCCF RECON,ioos:station:SCCF:12:1,2009-04-08T04:00:00Z,26.4966,-82.1479,0.517,36.35,1111122 
SCCF RECON,ioos:station:SCCF:12:1,2009-04-08T05:00:00Z,26.4966,-82.1479,0.506,36.35,1111122 
SCCF RECON,ioos:station:SCCF:12:1,2009-04-08T06:00:00Z,26.4966,-82.1479,0.5,36.35,1111122 
SCCF RECON,ioos:station:SCCF:12:1,2009-04-08T07:00:00Z,26.4966,-82.1479,0.49,36.37,1111122 
SCCF RECON,ioos:station:SCCF:12:1,2009-04-08T08:00:00Z,26.4966,-82.1479,0.48,36.32,1111122 
SCCF RECON,ioos:station:SCCF:12:1,2009-04-08T09:00:00Z,26.4966,-82.1479,0.46,36.34,1111122 
SCCF RECON,ioos:station:SCCF:12:1,2009-04-08T10:00:00Z,26.4966,-82.1479,0.45,36.34,1111122 
SCCF RECON,ioos:station:SCCF:12:1,2009-04-08T11:00:00Z,26.4966,-82.1479,0.44,36.36,1111122 
SCCF RECON,ioos:station:SCCF:12:1,2009-04-08T12:00:00Z,26.4966,-82.1479,0.419,36.4,1111122 
SCCF RECON,ioos:station:SCCF:12:1,2009-04-08T13:00:00Z,26.4966,-82.1479,0.41,36.36,1111122 
SCCF RECON,ioos:station:SCCF:12:1,2009-04-08T14:00:00Z,26.4966,-82.1479,0.41,36.37,1111122 
SCCF RECON,ioos:station:SCCF:12:1,2009-04-08T15:00:00Z,26.4966,-82.1479,0.4,36.39,1111122 
SCCF RECON,ioos:station:SCCF:12:1,2009-04-08T16:00:00Z,26.4966,-82.1479,0.42,36.39,1111122 
SCCF RECON,ioos:station:SCCF:12:1,2009-04-08T17:00:00Z,26.4966,-82.1479,0.439,36.38,1111122 
SCCF RECON,ioos:station:SCCF:12:1,2009-04-08T18:00:00Z,26.4966,-82.1479,0.4,36.48,1111122 
SCCF RECON,ioos:station:SCCF:12:1,2009-04-08T19:00:00Z,26.4966,-82.1479,0.39,36.5,1111122 
SCCF RECON,ioos:station:SCCF:12:1,2009-04-08T20:00:00Z,26.4966,-82.1479,0.4,36.46,1111122 
SCCF RECON,ioos:station:SCCF:12:1,2009-04-08T21:00:00Z,26.4966,-82.1479,0.4,36.47,1111122 
SCCF RECON,ioos:station:SCCF:12:1,2009-04-08T22:00:00Z,26.4966,-82.1479,0.43,36.45,1111122 
SCCF RECON,ioos:station:SCCF:12:1,2009-04-08T23:00:00Z,26.4966,-82.1479,0.46,36.46,1111122 
SCCF RECON,ioos:station:SCCF:12:1,2009-04-09T00:00:00Z,26.4966,-82.1479,0.45,36.46,1111122 
SCCF RECON,ioos:station:SCCF:12:1,2009-04-09T01:00:00Z,26.4966,-82.1479,0.418,36.45,1111122 
SCCF RECON,ioos:station:SCCF:12:1,2009-04-09T02:00:00Z,26.4966,-82.1479,0.42,36.41,1111122 
SCCF RECON,ioos:station:SCCF:12:1,2009-04-09T03:00:00Z,26.4966,-82.1479,0.43,36.43,1111122 
SCCF RECON,ioos:station:SCCF:12:1,2009-04-09T04:00:00Z,26.4966,-82.1479,0.42,36.43,1111122 
SCCF RECON,ioos:station:SCCF:12:1,2009-04-09T05:00:00Z,26.4966,-82.1479,0.415,36.47,1111122 
SCCF RECON,ioos:station:SCCF:12:1,2009-04-09T06:00:00Z,26.4966,-82.1479,0.4,36.46,1111122 
SCCF RECON,ioos:station:SCCF:12:1,2009-04-09T07:00:00Z,26.4966,-82.1479,0.4,36.48,1111122 
SCCF RECON,ioos:station:SCCF:12:1,2009-04-09T08:00:00Z,26.4966,-82.1479,0.41,36.47,1111122 
SCCF RECON,ioos:station:SCCF:12:1,2009-04-09T09:00:00Z,26.4966,-82.1479,0.41,36.44,1111122 
SCCF RECON,ioos:station:SCCF:12:1,2009-04-09T10:00:00Z,26.4966,-82.1479,0.4,36.44,1111122 
SCCF RECON,ioos:station:SCCF:12:1,2009-04-09T11:00:00Z,26.4966,-82.1479,0.398,36.46,1111122 
SCCF RECON,ioos:station:SCCF:12:1,2009-04-09T12:00:00Z,26.4966,-82.1479,0.39,36.49,1111122 
SCCF RECON,ioos:station:SCCF:12:1,2009-04-09T13:00:00Z,26.4966,-82.1479,0.38,36.48,1111122 
SCCF RECON,ioos:station:SCCF:12:1,2009-04-09T14:00:00Z,26.4966,-82.1479,0.37,36.47,1111122 
SCCF RECON,ioos:station:SCCF:12:1,2009-04-09T15:00:00Z,26.4966,-82.1479,2.371,36.47,1111122 
SCCF RECON,ioos:station:SCCF:12:1,2009-04-09T16:00:00Z,26.4966,-82.1479,2.482,36.48,1111122 
SCCF RECON,ioos:station:SCCF:12:1,2009-04-09T17:00:00Z,26.4966,-82.1479,2.54,36.48,1111122 
SCCF RECON,ioos:station:SCCF:12:1,2009-04-09T18:00:00Z,26.4966,-82.1479,2.52,36.49,1111122 
SCCF RECON,ioos:station:SCCF:12:1,2009-04-09T19:00:00Z,26.4966,-82.1479,2.43,36.48,1111122 
SCCF RECON,ioos:station:SCCF:12:1,2009-04-09T20:00:00Z,26.4966,-82.1479,2.299,36.52,1111122 
SCCF RECON,ioos:station:SCCF:12:1,2009-04-09T21:00:00Z,26.4966,-82.1479,2.161,36.54,1111122 
SCCF RECON,ioos:station:SCCF:12:1,2009-04-09T22:00:00Z,26.4966,-82.1479,2.036,36.53,1111122 
SCCF RECON,ioos:station:SCCF:12:1,2009-04-09T23:00:00Z,26.4966,-82.1479,1.921,36.53,1111122 
SCCF RECON,ioos:station:SCCF:12:1,2009-04-10T00:00:00Z,26.4966,-82.1479,1.829,36.52,1111122 
SCCF RECON,ioos:station:SCCF:12:1,2009-04-10T01:00:00Z,26.4966,-82.1479,1.781,36.5,1111122 
SCCF RECON,ioos:station:SCCF:12:1,2009-04-10T02:00:00Z,26.4966,-82.1479,1.871,36.5,1111122 
SCCF RECON,ioos:station:SCCF:12:1,2009-04-10T03:00:00Z,26.4966,-82.1479,2.05,36.5,1111122 
SCCF RECON,ioos:station:SCCF:12:1,2009-04-10T04:00:00Z,26.4966,-82.1479,2.216,36.51,1111122 
SCCF RECON,ioos:station:SCCF:12:1,2009-04-10T05:00:00Z,26.4966,-82.1479,2.34,36.51,1111122 
SCCF RECON,ioos:station:SCCF:12:1,2009-04-10T06:00:00Z,26.4966,-82.1479,2.428,36.54,1111122 
SCCF RECON,ioos:station:SCCF:12:1,2009-04-10T07:00:00Z,26.4966,-82.1479,2.451,36.51,1111122 
SCCF RECON,ioos:station:SCCF:12:1,2009-04-10T08:00:00Z,26.4966,-82.1479,2.413,36.52,1111122 
SCCF RECON,ioos:station:SCCF:12:1,2009-04-10T09:00:00Z,26.4966,-82.1479,2.365,36.56,1111122 
SCCF RECON,ioos:station:SCCF:12:1,2009-04-10T10:00:00Z,26.4966,-82.1479,2.281,36.56,1111122 
SCCF RECON,ioos:station:SCCF:12:1,2009-04-10T11:00:00Z,26.4966,-82.1479,2.22,36.55,1111122 
SCCF RECON,ioos:station:SCCF:12:1,2009-04-10T12:00:00Z,26.4966,-82.1479,2.22,36.55,1111122 
SCCF RECON,ioos:station:SCCF:12:1,2009-04-10T13:00:00Z,26.4966,-82.1479,2.261,36.55,1111122 
SCCF RECON,ioos:station:SCCF:12:1,2009-04-10T14:00:00Z,26.4966,-82.1479,2.366,36.54,1111122 
SCCF RECON,ioos:station:SCCF:12:1,2009-04-10T15:00:00Z,26.4966,-82.1479,2.518,36.54,1111122 
SCCF RECON,ioos:station:SCCF:12:1,2009-04-10T16:00:00Z,26.4966,-82.1479,2.619,36.55,1111122 
SCCF RECON,ioos:station:SCCF:12:1,2009-04-10T17:00:00Z,26.4966,-82.1479,2.685,36.55,1111122 
SCCF RECON,ioos:station:SCCF:12:1,2009-04-10T18:00:00Z,26.4966,-82.1479,2.707,36.56,1111122 
SCCF RECON,ioos:station:SCCF:12:1,2009-04-10T19:00:00Z,26.4966,-82.1479,2.664,36.54,1111122 
SCCF RECON,ioos:station:SCCF:12:1,2009-04-10T20:00:00Z,26.4966,-82.1479,2.557,36.51,1111122 
SCCF RECON,ioos:station:SCCF:12:1,2009-04-10T21:00:00Z,26.4966,-82.1479,2.404,36.54,1111122 
SCCF RECON,ioos:station:SCCF:12:1,2009-04-10T22:00:00Z,26.4966,-82.1479,2.241,36.53,1111122 
SCCF RECON,ioos:station:SCCF:12:1,2009-04-10T23:00:00Z,26.4966,-82.1479,2.099,36.54,1111122 
SCCF RECON,ioos:station:SCCF:12:1,2009-04-11T00:00:00Z,26.4966,-82.1479,1.978,36.54,1111122 
SCCF RECON,ioos:station:SCCF:12:1,2009-04-11T01:00:00Z,26.4966,-82.1479,1.88,36.54,1111122 
SCCF RECON,ioos:station:SCCF:12:1,2009-04-11T02:00:00Z,26.4966,-82.1479,1.84,36.55,1111122 
SCCF RECON,ioos:station:SCCF:12:1,2009-04-11T03:00:00Z,26.4966,-82.1479,1.94,36.54,1111122 
SCCF RECON,ioos:station:SCCF:12:1,2009-04-11T04:00:00Z,26.4966,-82.1479,2.11,36.52,1111122 
SCCF RECON,ioos:station:SCCF:12:1,2009-04-11T05:00:00Z,26.4966,-82.1479,2.24,36.52,1111122 
SCCF RECON,ioos:station:SCCF:12:1,2009-04-11T06:00:00Z,26.4966,-82.1479,2.34,36.55,1111122 
SCCF RECON,ioos:station:SCCF:12:1,2009-04-11T07:00:00Z,26.4966,-82.1479,2.4,36.54,1111122 
SCCF RECON,ioos:station:SCCF:12:1,2009-04-11T08:00:00Z,26.4966,-82.1479,2.4,36.53,1111122 
SCCF RECON,ioos:station:SCCF:12:1,2009-04-11T09:00:00Z,26.4966,-82.1479,2.34,36.47,1111122 
SCCF RECON,ioos:station:SCCF:12:1,2009-04-11T10:00:00Z,26.4966,-82.1479,2.27,36.43,1111122 
SCCF RECON,ioos:station:SCCF:12:1,2009-04-11T11:00:00Z,26.4966,-82.1479,2.22,36.42,1111122 
SCCF RECON,ioos:station:SCCF:12:1,2009-04-11T12:00:00Z,26.4966,-82.1479,2.188,36.43,1111122 
SCCF RECON,ioos:station:SCCF:12:1,2009-04-11T13:00:00Z,26.4966,-82.1479,2.172,36.42,1111122 
SCCF RECON,ioos:station:SCCF:12:1,2009-04-11T14:00:00Z,26.4966,-82.1479,2.23,36.44,1111122 
SCCF RECON,ioos:station:SCCF:12:1,2009-04-11T15:00:00Z,26.4966,-82.1479,2.353,36.49,1111122 
SCCF RECON,ioos:station:SCCF:12:1,2009-04-11T16:00:00Z,26.4966,-82.1479,2.487,36.51,1111122 
SCCF RECON,ioos:station:SCCF:12:1,2009-04-11T17:00:00Z,26.4966,-82.1479,2.574,36.51,1111122 
SCCF RECON,ioos:station:SCCF:12:1,2009-04-11T18:00:00Z,26.4966,-82.1479,2.603,36.49,1111122 